Theta_e
278 278 279 279 280 279 279 279 276 273 274 276 277 281 283 283 284 283 283 286 289 290 290 291 292 294 295 296 298 299 300 301 304 307 308 310 312 317
278 277 277 278 277 277 277 278 277 275 273 277 277 279 280 281 281 281 281 284 285 287 288 289 290 292 293 294 296 297 298 299 300 303 306 307 310 314
276 276 276 277 275 275 275 275 275 274 272 274 276 277 277 277 278 279 280 279 280 284 286 288 290 291 292 293 294 295 296 297 298 299 301 305 306 310
276 276 275 278 275 274 274 273 273 273 272 271 274 274 274 276 276 276 278 279 279 282 286 286 287 288 289 290 291 292 293 294 295 296 297 300 303 305
276 276 275 275 274 274 273 272 273 274 273 272 272 274 274 274 274 275 276 276 279 281 282 283 283 284 286 287 289 290 289 291 293 293 294 296 298 300
277 276 275 275 274 273 273 273 274 273 272 272 271 272 272 274 274 273 273 275 275 277 279 280 281 282 283 284 285 285 286 288 290 291 293 294 295 296
275 276 275 275 277 277 275 274 273 272 271 271 271 271 271 272 272 274 273 274 274 275 275 276 277 277 278 281 281 283 285 286 287 288 289 290 292 293
274 275 274 275 275 277 278 278 277 273 271 270 271 272 272 273 274 273 273 272 270 276 274 275 277 276 277 278 282 284 284 285 285 287 288 289 289 290
274 275 274 275 274 274 275 277 277 278 279 276 273 273 273 274 274 273 273 273 273 275 275 274 276 276 277 279 282 283 283 284 284 285 286 287 288 290
274 274 274 273 274 274 274 274 275 276 276 277 276 276 276 277 277 277 276 276 277 277 278 271 275 274 276 277 281 282 283 283 284 284 284 285 287 288
275 274 274 273 276 278 276 273 273 273 276 277 278 279 279 278 277 274 272 271 270 272 276 273 274 274 275 275 277 281 282 282 282 282 283 283 284 284
273 275 277 276 278 279 276 272 270 270 271 272 270 271 273 273 275 274 273 270 271 270 275 273 273 274 271 275 276 276 276 279 280 281 281 282 282 280
271 272 274 277 278 279 278 272 270 274 268 265 266 267 268 269 270 272 273 271 268 268 273 273 271 271 271 271 273 275 275 275 276 277 279 280 280 280
270 273 273 277 278 277 276 275 275 272 263 263 264 264 266 267 269 269 271 271 272 271 272 273 270 270 269 268 268 273 274 275 275 275 275 278 279 279
274 274 277 277 276 273 272 273 270 264 262 259 263 265 267 268 268 268 269 270 270 271 272 272 271 272 271 269 268 270 271 273 274 274 274 274 274 275
274 271 271 274 273 271 267 268 267 266 265 264 264 266 266 266 266 267 266 267 266 266 270 272 272 273 271 271 270 269 271 270 272 273 274 274 274 275
271 265 261 261 261 262 262 263 264 264 263 264 264 263 264 265 264 266 265 265 264 264 266 269 271 273 273 272 270 270 270 271 272 273 273 272 273 274
267 257 257 259 261 261 260 261 263 263 263 263 262 263 263 263 263 264 265 264 264 264 265 266 267 267 267 269 274 270 271 271 273 274 274 272 271 274
260 256 260 260 259 260 259 260 262 262 261 262 262 262 262 262 262 262 263 264 263 264 264 265 265 265 263 263 269 276 272 273 273 273 275 273 272 274
255 258 259 259 257 257 258 260 261 259 259 259 259 259 260 260 261 261 262 262 262 263 263 264 265 266 265 265 266 269 276 273 274 274 275 277 276 279
259 257 258 257 259 257 254 257 255 256 255 255 256 257 259 260 260 261 261 262 263 263 262 263 266 270 270 270 268 269 273 280 279 277 278 274 273 274
256 256 256 256 256 256 251 255 253 252 252 250 253 254 258 259 260 260 260 261 262 263 263 265 267 267 267 268 268 270 272 275 279 279 278 279 276 273
258 258 257 257 256 253 251 253 251 254 251 249 250 255 257 258 258 259 260 262 263 262 263 263 264 265 266 268 269 270 271 269 271 271 273 276 278 279
Wind_Speed
4 4 2 2 3 4 2 1 1 6 9 4 4 9 9 10 13 14 13 22 27 29 29 30 29 29 28 27 27 26 26 25 25 25 24 25 25 22
2 4 3 2 3 3 3 3 3 3 8 5 9 11 11 12 16 13 15 25 25 27 27 28 30 29 29 28 27 27 27 27 26 26 25 25 26 23
3 3 4 4 3 3 3 3 3 2 8 14 8 9 13 11 14 14 13 14 12 25 28 28 27 27 27 26 25 25 26 27 27 26 26 25 25 25
3 4 4 3 5 4 3 4 4 3 5 17 12 11 11 11 12 15 12 11 11 20 26 29 28 28 29 28 28 28 27 27 27 26 26 26 25 25
3 4 4 5 4 3 3 4 4 7 5 9 14 10 10 10 12 11 13 13 9 21 22 25 27 26 28 29 27 25 25 26 22 23 25 25 24 24
4 4 5 5 5 3 5 5 7 6 7 9 11 11 11 11 10 11 11 10 11 10 16 19 23 23 24 26 28 26 27 25 25 25 22 20 21 23
5 5 5 5 11 10 6 4 6 6 7 9 11 12 11 11 12 11 12 12 12 10 11 9 7 10 11 17 19 26 25 26 27 27 26 26 23 22
6 5 4 5 8 12 14 16 13 10 10 8 11 12 16 13 12 12 13 13 16 8 10 12 10 10 9 9 21 26 26 26 27 28 26 25 26 26
7 6 6 5 5 6 12 17 17 19 21 16 16 15 18 16 16 17 16 15 15 12 13 14 10 11 9 10 23 27 27 26 25 25 25 26 28 26
7 7 7 8 7 8 10 11 9 10 12 11 14 15 16 16 15 15 16 17 12 8 8 16 10 11 10 9 22 26 26 25 19 20 23 26 24 25
7 7 8 9 12 17 11 6 9 10 13 23 25 27 29 32 27 15 12 13 12 10 8 12 11 11 10 11 11 18 17 19 26 27 25 25 27 27
7 9 13 12 16 16 8 5 9 11 13 11 12 15 17 16 23 13 10 10 10 10 5 7 10 10 8 7 4 10 10 22 26 27 26 26 25 12
6 5 5 14 17 17 14 5 8 14 8 7 9 9 10 10 9 10 11 11 11 11 13 12 11 11 9 11 10 10 10 11 10 14 22 25 25 21
6 6 6 17 17 13 14 17 18 11 3 5 7 9 9 9 10 11 13 12 11 14 15 14 10 11 12 13 12 8 10 9 10 11 11 18 24 24
5 10 19 11 11 9 13 15 8 2 3 3 7 9 9 10 13 11 12 12 13 14 11 15 11 12 10 12 12 12 14 9 11 11 10 10 10 9
12 6 6 10 10 9 3 7 4 4 5 6 7 9 9 9 10 9 10 10 10 11 12 13 13 12 11 11 11 12 13 10 11 11 10 11 12 10
10 2 1 1 2 2 3 3 3 3 4 5 5 8 9 9 10 9 9 10 9 11 12 11 11 12 11 14 13 12 12 13 12 12 12 12 12 12
2 3 3 3 3 3 3 4 3 5 4 4 6 7 8 9 10 10 9 9 10 10 11 11 12 12 9 10 19 12 11 12 12 13 11 11 13 11
3 3 3 3 3 3 3 3 6 4 2 4 6 7 8 8 11 10 10 10 9 10 11 10 11 10 11 12 12 16 10 11 12 14 10 9 11 13
3 3 4 4 3 3 3 4 5 4 3 4 6 6 7 8 9 10 9 11 10 11 11 10 9 9 10 13 15 17 22 13 12 12 13 7 9 22
3 3 3 3 4 4 3 3 4 4 4 4 4 5 7 7 9 9 10 14 14 10 12 12 11 19 12 12 10 12 10 15 6 8 4 1 5 5
3 3 3 3 4 4 3 4 4 4 4 3 4 4 6 7 9 10 9 11 11 10 11 11 13 11 10 10 12 14 9 7 5 10 17 13 4 5
3 3 3 4 4 3 3 4 4 6 4 4 3 5 6 8 8 9 10 10 10 11 11 12 11 9 10 10 12 10 8 8 6 6 3 15 15 13
Wind_Direction
27 30 -0 347 6 330 340 321 280 315 309 303 321 336 328 325 321 318 320 316 317 315 312 312 310 309 308 306 304 302 301 300 296 289 288 285 277 262
25 17 356 326 341 336 346 322 304 270 290 309 309 319 323 323 315 324 317 314 313 309 308 312 310 308 306 304 302 302 301 298 296 294 287 284 281 279
350 1 323 321 326 322 320 300 302 303 288 298 305 313 308 308 316 316 314 311 311 315 311 305 310 309 309 303 300 301 299 297 294 293 292 286 284 282
325 307 305 319 305 299 309 312 300 290 288 294 307 309 310 315 309 308 309 306 314 307 319 314 314 316 311 312 313 308 300 298 296 296 293 291 288 284
272 282 290 294 292 304 329 308 291 298 285 289 300 306 306 309 306 303 306 305 307 311 312 311 309 306 307 307 306 318 328 322 296 295 288 292 293 290
282 278 274 274 284 320 302 282 291 295 294 289 295 303 304 309 300 305 305 305 306 303 304 302 308 308 313 310 307 312 311 311 311 315 312 308 298 293
273 270 264 264 293 292 287 270 279 280 281 288 294 299 301 306 304 306 296 301 296 297 295 294 288 298 296 301 299 302 300 298 299 298 298 301 301 298
277 270 277 278 279 291 296 295 295 293 290 294 289 288 296 296 294 293 293 295 296 280 275 294 290 293 292 290 293 300 305 303 302 303 305 300 289 291
272 278 280 276 283 279 285 288 288 286 289 298 295 288 291 291 292 289 286 284 282 288 294 293 294 288 293 289 298 300 300 301 301 299 298 296 296 293
263 265 264 270 264 276 276 272 281 289 295 297 295 299 296 292 287 296 298 298 290 296 285 290 299 293 298 294 293 295 301 300 301 318 318 305 306 287
266 262 253 258 264 280 285 302 299 301 305 306 304 307 310 309 307 307 300 301 300 301 286 279 295 293 297 294 280 297 310 315 307 309 305 305 304 303
258 260 257 260 273 286 296 292 310 308 304 314 323 313 313 308 311 308 301 293 300 307 300 299 303 309 301 273 301 313 305 297 301 303 303 301 301 291
254 258 257 276 283 292 303 323 290 297 345 325 312 310 310 309 310 309 314 317 312 300 295 302 302 299 285 297 291 290 286 286 289 291 294 295 295 293
245 258 267 278 283 293 314 308 304 336 319 303 306 306 305 308 313 310 303 302 296 293 296 292 285 284 288 289 288 288 288 288 282 284 289 290 291 291
257 258 270 287 302 319 304 299 330 307 277 292 298 299 307 308 309 308 302 302 297 293 289 288 282 282 275 279 286 291 294 295 284 276 277 279 280 280
270 276 244 266 295 297 317 294 287 277 281 288 295 302 308 308 308 312 311 313 309 305 296 289 282 279 277 268 272 278 280 279 289 281 276 274 275 269
242 131 124 211 239 253 268 265 269 273 282 281 296 304 302 310 310 315 307 304 301 309 309 309 303 294 280 277 277 271 278 278 274 275 278 274 268 265
188 160 208 201 222 225 251 267 259 271 269 291 300 293 302 308 308 309 305 305 304 309 307 308 312 311 300 275 255 269 273 271 277 274 264 265 276 271
157 196 199 201 219 228 239 249 278 272 272 288 291 295 301 301 305 304 310 309 308 308 303 303 303 301 302 298 295 288 289 287 286 285 271 255 261 276
158 187 205 215 216 227 238 257 273 275 272 279 283 288 289 297 303 302 310 309 308 307 305 304 300 298 297 296 297 295 291 271 274 278 282 261 250 269
188 192 194 204 226 229 230 249 254 265 257 272 273 278 291 298 297 300 306 306 305 308 305 305 303 300 290 287 285 287 295 295 344 321 296 234 266 279
211 207 214 211 224 229 223 246 262 270 266 254 262 274 291 289 295 303 303 303 310 309 302 302 307 308 305 302 300 305 305 320 333 3 9 18 327 335
217 222 229 233 236 227 219 240 246 262 252 255 259 279 288 293 295 293 296 298 310 311 311 311 314 313 305 307 314 319 344 334 336 333 330 355 350 4